This demonstration page uses our WeatherBlox Daily Observations layout. Learn more.

36.17497, -115.13722

Hourly Observations for September 3, 2019

Temp ( °F °C ) Dew Point ( °F °C ) Humidity (%) Winds ( mph kmh ) Pressure ( in mb ) Visibility ( mi km ) Precip ( " mm )
12:53 am 00:53 Clear 88 31.1 50 10 27 27 NNW 3 6 29.88 1012 10 16.09344 0 0
1:53 am 01:53 Clear 86 30 51 10.6 30 30 NW 3 6 29.88 1012 10 16.09344 0 0
2:53 am 02:53 Clear 84 28.9 51 10.6 32 32 WNW 6 9 29.88 1012 10 16.09344 0 0
3:53 am 03:53 Clear 84 28.9 52 11.1 33 33 W 5 7 29.88 1012 10 16.09344 0 0
4:53 am 04:53 Clear 83 28.3 52 11.1 34 34 WNW 7 11 29.88 1012 10 16.09344 0 0
5:53 am 05:53 Clear 82 27.8 51 10.6 34 34 NW 5 7 29.91 1013 10 16.09344 0 0
6:53 am 06:53 Sunny 84 28.9 50 10 31 31 Calm 29.91 1013 10 16.09344 0 0
7:53 am 07:53 Sunny 87 30.6 52 11.1 30 30 N 3 6 29.91 1013 10 16.09344 0 0
8:53 am 08:53 Sunny 90 32.2 53 11.7 28 28 E 3 6 29.94 1014 10 16.09344 0 0
9:53 am 09:53 Sunny 93 33.9 53 11.7 26 26 E 8 13 29.94 1014 10 16.09344 0 0
10:53 am 10:53 Sunny 96 35.6 53 11.7 23 23 ESE 5 7 29.91 1013 10 16.09344 0 0
11:53 am 11:53 Sunny 98 36.7 53 11.7 22 22 E 3 6 29.88 1012 10 16.09344 0 0
12:53 pm 12:53 Sunny 101 38.3 51 10.6 19 19 SSE 8 13 29.85 1011 10 16.09344 0 0
1:53 pm 13:53 Sunny 102 38.9 50 10 17 17 VRB 5 7 29.83 1010 10 16.09344 0 0
2:53 pm 14:53 Sunny 102 38.9 49 9.4 17 17 VRB 6 9 29.8 1009 10 16.09344 0 0
3:53 pm 15:53 Sunny 103 39.4 47 8.3 15 15 VRB 3 6 29.8 1009 10 16.09344 0 0
4:53 pm 16:53 Sunny 103 39.4 47 8.3 15 15 ESE 10 17 29.77 1008 10 16.09344 0 0
5:53 pm 17:53 Sunny 101 38.3 49 9.4 17 17 W 14 22 29.77 1008 10 16.09344 0 0
6:11 pm 18:11 Sunny 99 37.2 48 8.9 18 18 W 12 19 29.62 1003 10 16.09344 0 0
6:53 pm 18:53 Sunny 99 37.2 49 9.4 18 18 W 7 11 29.8 1009 10 16.09344 0 0
7:53 pm 19:53 Clear 97 36.1 49 9.4 20 20 Calm 29.8 1009 10 16.09344 0 0
8:53 pm 20:53 Clear 96 35.6 50 10 21 21 WNW 3 6 29.83 1010 10 16.09344 0 0
9:53 pm 21:53 Clear 93 33.9 49 9.4 22 22 NW 3 6 29.83 1010 10 16.09344 0 0
10:53 pm 22:53 Clear 90 32.2 51 10.6 26 26 WNW 6 9 29.83 1010 10 16.09344 0 0
11:53 pm 23:53 Clear 89 31.7 51 10.6 27 27 NW 7 11 29.8 1009 10 16.09344 0 0

Powered by AerisWeather